Regional Weather Roundup
Issued by NWS

Home | Current Version | Previous Version | Text Only | Print | Product List | Glossary Off
Versions: 1 2 3 4 5 6 7 8 9 10 11 12 13 14 15 16 17 18 19 20 21 22 23 24 25 26 27 28 29 30 31 32 33 34 35 36 37 38 39 40 41 42 43 44 45 46 47 48 49 50

000
ASUS45 KBOU 191207
RWRCO

WEATHER ROUNDUP FOR COLORADO
NATIONAL WEATHER SERVICE DENVER/BOULDER CO
500 AM MST FRI DEC 19 2014

NOTE: "FAIR" INDICATES FEW OR NO CLOUDS BELOW 12000 FEET WITH NO
SIGNIFICANT WEATHER AND/OR OBSTRUCTIONS TO VISIBILITY.

COZ001>005-013-030-031-191300-
...NORTHWEST COLORADO...

CITY           SKY/WX    TMP DP  RH WIND       PRES   REMARKS
CRAIG          CLOUDY    24  18  77 S5        30.20S WCI  18
HAYDEN         CLOUDY    16  12  86 CALM      30.18R
MEEKER         CLOUDY    20  17  88 CALM      30.20R
MOUNT WERNER   NOT AVBL
STEAMBOAT SPGS CLOUDY    19  17  91 E6        30.17R WCI  11
WALDEN         CLOUDY     1  -4  78 CALM      30.11R
$$

COZ006>008-011-191300-
...WEST CENTRAL VALLEYS...

CITY           SKY/WX    TMP DP  RH WIND       PRES   REMARKS
GRAND JUNCTION CLOUDY    31  28  89 E5        30.20F WCI  26
MONTROSE       CLOUDY    30  27  88 S3        30.22R
EAGLE          MOCLDY    19  18  93 CALM      30.22R
RIFLE          CLOUDY    30  25  81 CALM      30.21R
DELTA          MOCLDY    29  26  89 CALM      30.22S
NUCLA          CLOUDY    30  28  93 CALM      30.25R
$$

COZ017>023-064>068-191300-
...SOUTHWEST COLORADO...

CITY           SKY/WX    TMP DP  RH WIND       PRES   REMARKS
DURANGO        CLOUDY    22  18  85 N7        30.16S WCI  13
CORTEZ         CLEAR     19  16  88 NE8       30.20R WCI   9
PAGOSA SPRINGS PTCLDY    14  13  96 CALM      30.15S
TELLURIDE      NOT AVBL
WOLF CREEK PAS PTCLDY     7   5  92 MISG      30.07S
$$

COZ009-010-012-014-032>034-037-058>063-191300-
...CENTRAL COLORADO...

CITY           SKY/WX    TMP DP  RH WIND       PRES   REMARKS
ASPEN          FLURRIES  22  20  92 CALM      30.14S
BUENA VISTA    PTCLDY    18  10  72 NW12      30.09S WCI   5
COPPER MTN     CLOUDY    12   5  73 MISG      30.05S
BERTHOUD PASS  CLOUDY     3   0  85 MISG      30.02R
COTTONWOOD PAS PTCLDY    21   9  58 NW14G21   30.05S WCI   8
GUNNISON       CLOUDY    16   9  73 N9        30.20R WCI   4
KREMMLING      FOG      N/A N/A N/A CALM      30.19R VSB 1/2
LEADVILLE      CLOUDY    10   5  80 NE6       30.08R WCI   0
MONARCH PASS   CLOUDY     9   5  85 MISG      30.13S
SALIDA         PTCLDY    21  12  68 N9        30.17S WCI  11
SUNLIGHT       LGT SNOW N/A N/A N/A CALM      30.13R
WILKERSON PASS PTCLDY    12   5  73 W10G21    30.03S WCI  -1
$$

COZ069>075-191300-
...SAN LUIS VALLEY/SANGRE DE CRISTO MOUNTAINS...

CITY           SKY/WX    TMP DP  RH WIND       PRES   REMARKS
ALAMOSA        CLOUDY     5   2  87 E3        30.12S FOG
LA VETA PASS   CLOUDY    16  12  86 MISG      30.04R
SAGUACHE       CLEAR     19  14  79 NW14      30.12S WCI   6
$$

COZ035-036-038>040-191300-
...NORTHERN COLORADO FRONT RANGE...

CITY           SKY/WX    TMP DP  RH WIND       PRES   REMARKS
DENVER INTL AP PTCLDY    23  21  92 SW7       30.06R WCI  15
DMNS CITY PARK   N/A     24  22  91 S3        30.07R
AURORA         PTCLDY    22  21  93 SW6       30.05S WCI  15
FRONT RANGE AP CLEAR     28  23  80 SW6       30.07R WCI  22
ERIE MUNI ARPT   N/A     16  15  95 CALM      30.07R FOG
BOULDER MUN AP CLEAR     27  19  74 CALM      30.06R
CENTENNIAL     PTCLDY    21  18  88 CALM      30.05R
BROOMFIELD     CLEAR     28  25  86 CALM      30.06R
FORT COLLINS   CLEAR     21  18  86 N3        30.08R
LONGMONT       CLEAR     20  18  89 SW6       30.09R WCI  13
$$

COZ041-046-047-076>085-087-088-191300-
...PIKES PEAK/PALMER DIVIDE AND SOUTHERN FOOTHILLS...

CITY           SKY/WX    TMP DP  RH WIND       PRES   REMARKS
COLO. SPRINGS  PTCLDY    20  17  88 N6        30.07R WCI  12
A. F. ACADEMY  CLEAR     16  14  89 N7        30.05S WCI   7
ELLICOTT       NOT AVBL
FALCON         CLOUDY    23  22  96 CALM      30.06R
FORT CARSON    CLEAR     22  19  88 NW7       30.05S WCI  13
LIMON          CLEAR     15  11  83 N3        30.07S
MONUMENT HILL  CLEAR     19  18  93 SW6       30.03S WCI  11
TRINIDAD       CLEAR     24  20  84 SW10      30.07S WCI  14
$$

COZ042>045-048>051-090-091-191300-
...NORTHEAST COLORADO...

CITY           SKY/WX    TMP DP  RH WIND       PRES   REMARKS
GREELEY ARPT   CLEAR     12   9  85 NW6       30.07R WCI   3
AKRON          CLOUDY    22  20  92 W12       30.06R FOG     WCI  10
BURLINGTON     CLEAR     23  19  85 W9        30.08R WCI  13
WRAY           CLEAR     19  15  86 W7        30.08S WCI   9
STERLING       CLEAR     12  10  92 SW9       30.08R WCI   0
HOLYOKE        NOT AVBL
FORT MORGAN    CLEAR     17  15  91 W8        30.09R WCI   7
$$

COZ086-089-092>099-191300-
...SOUTHEAST COLORADO...

CITY           SKY/WX    TMP DP  RH WIND       PRES   REMARKS
PUEBLO         CLEAR     18  16  92 W5        30.08  WCI  11
LA JUNTA       PTCLDY    27  25  92 W5        30.09S FOG     WCI  22
LAMAR          MOCLDY    23  22  96 S6        30.08F WCI  16
SPRINGFIELD      N/A     25  23  92 W3        30.07S
$$


USA.gov is the U.S. government's official web portal to all federal, state and local government web resources and services.